This is the latest recevied weather packets stored in our database for station/object DM5KA-13. If no packets are shown the sender has not sent any weather packets the latest 10 day(s).
| Time | Temp. | Humidity | Pressure | Rain* | Wind** | Luminosity | Snow |
|---|---|---|---|---|---|---|---|
| 1778067606 | 22.22° C | 50% | 1007.1 hPa | 0 mm | 0.45 m/s, 0° | - | - |
| 1778067306 | 22.22° C | 45% | 1007.2 hPa | 0 mm | 0.45 m/s, 0° | - | - |
| 1778067006 | 22.22° C | 48% | 1007.2 hPa | 0 mm | 0.45 m/s, 0° | - | - |
| 1778066706 | 21.11° C | 47% | 1007.2 hPa | 0 mm | 1.79 m/s, 0° | - | - |
| 1778066406 | 21.11° C | 49% | 1007.2 hPa | 0 mm | 0.89 m/s, 0° | - | - |
| 1778066106 | 21.11° C | 52% | 1007.1 hPa | 0 mm | 0.45 m/s, 0° | - | - |
| 1778065806 | 21.11° C | 53% | 1007.2 hPa | 0 mm | 0.45 m/s, 0° | - | - |
| 1778065518 | 20° C | 55% | 1007.1 hPa | 0 mm | 0.45 m/s, 0° | - | - |
| 1778065217 | 20° C | 57% | 1007.2 hPa | 0 mm | 0 m/s | - | - |
| 1778064917 | 20° C | 58% | 1007.2 hPa | 0 mm | 0.89 m/s, 0° | - | - |
| 1778064617 | 20° C | 58% | 1007.2 hPa | 0 mm | 0 m/s | - | - |
| 1778064317 | 21.11° C | 51% | 1007.1 hPa | 0 mm | 1.34 m/s, 0° | - | - |
| 1778064017 | 22.78° C | 48% | 1007.2 hPa | 0 mm | 0.45 m/s, 0° | - | - |
| 1778063717 | 22.22° C | 49% | 1007.1 hPa | 0 mm | 0.45 m/s, 0° | - | - |
| 1778063417 | 22.22° C | 50% | 1007.1 hPa | 0 mm | 0.45 m/s, 0° | - | - |
| 1778063117 | 22.22° C | 51% | 1007.1 hPa | 0 mm | 0.45 m/s, 0° | - | - |
| 1778062817 | 22.22° C | 50% | 1007.1 hPa | 0 mm | 0.45 m/s, 0° | - | - |
| 1778062517 | 22.22° C | 50% | 1007.1 hPa | 0 mm | 0.89 m/s, 0° | - | - |
| 1778062216 | 21.11° C | 52% | 1007.1 hPa | 0 mm | 0.45 m/s, 0° | - | - |
| 1778061916 | 20° C | 53% | 1007.1 hPa | 0 mm | 0.45 m/s, 0° | - | - |
| 1778061616 | 20° C | 56% | 1007 hPa | 0 mm | 0.89 m/s, 0° | - | - |
| 1778061316 | 21.11° C | 54% | 1007 hPa | 0 mm | 0.89 m/s, 0° | - | - |
| 1778061028 | 21.11° C | 53% | 1006.9 hPa | 0 mm | 0.45 m/s, 0° | - | - |
| 1778060705 | 20° C | 54% | 1006.9 hPa | 0 mm | 0.45 m/s, 0° | - | - |
| 1778060405 | 20° C | 55% | 1006.9 hPa | 0 mm | 0.45 m/s, 0° | - | - |
* Rain latest hour (hover to see other rain measurements)
** Current wind speed in m/s (hover to see current wind gust speed)